Temp
85 98 99 95 82 84 81 84 91 89 89 95 96 94 93 95 88 82 97 100 100 96 93 88 79 80 80 80 79 79 79 79 79 79 79 79 79 80 80 80 80 81 81 81 81 81 81 81 81
93 94 96 93 78 76 81 89 86 92 94 96 96 95 92 86 94 90 93 98 99 95 92 92 79 79 79 79 79 79 79 79 79 79 79 79 79 80 80 80 80 81 81 81 81 81 81 81 81
91 92 89 84 80 77 81 89 91 92 95 94 94 98 93 85 91 96 99 98 98 95 95 90 79 79 79 79 79 78 79 79 79 79 79 79 79 79 79 80 80 81 81 81 81 81 81 80 80
89 92 90 77 77 84 86 91 92 91 95 97 97 88 90 90 93 98 98 99 97 98 97 82 79 79 79 79 79 78 79 79 79 79 79 79 79 79 79 79 80 80 81 81 81 80 80 80 80
90 86 78 75 78 86 89 92 91 90 92 95 97 86 86 89 94 98 98 99 98 98 97 90 79 79 79 79 79 79 79 79 79 79 79 79 79 79 79 79 80 80 80 80 80 80 80 79 79
82 84 74 73 78 86 89 92 91 92 93 95 93 89 87 91 93 97 99 99 101 98 94 91 80 79 79 79 79 79 78 78 79 79 79 79 79 79 79 79 80 80 80 80 80 79 79 78 78
79 78 73 79 79 82 87 94 89 92 91 92 98 86 83 89 94 97 99 100 100 98 96 92 91 84 79 79 78 78 78 78 78 78 78 78 78 78 79 79 79 79 79 79 79 79 78 78 78
83 82 75 77 79 80 90 91 94 91 91 93 94 84 79 86 92 96 99 99 99 98 97 94 92 93 90 89 78 78 78 78 78 78 78 78 78 78 78 78 78 79 79 79 79 78 78 78 77
87 74 71 76 77 84 93 87 95 93 90 88 90 91 91 87 89 92 92 96 97 97 97 97 97 95 94 94 87 79 79 78 78 80 78 79 91 90 89 85 79 79 79 79 78 78 78 77 77
77 71 76 85 85 83 91 89 92 89 87 86 85 88 87 86 84 86 89 92 93 93 94 96 94 93 94 94 89 89 91 91 90 91 88 91 92 92 91 86 79 78 78 78 78 78 78 78 96
77 73 82 84 83 84 88 88 94 89 87 90 87 84 85 85 83 87 90 90 91 93 94 94 91 91 94 95 92 94 94 93 92 90 89 90 92 91 92 94 92 90 82 92 89 91 93 94 94
72 79 83 83 83 83 84 91 86 90 91 92 90 90 87 86 86 89 90 90 92 90 91 94 92 89 90 95 94 95 95 94 93 92 88 88 89 89 89 94 95 91 94 92 91 94 92 90 91
73 78 81 84 83 84 85 85 87 87 89 91 92 89 88 89 89 92 94 92 91 89 90 91 90 88 88 89 93 93 92 93 94 92 90 90 90 88 90 91 92 93 94 94 92 92 91 91 91
77 79 78 82 82 83 80 82 85 87 88 88 87 87 89 90 90 91 90 89 89 89 90 91 89 87 88 87 88 89 89 92 91 92 91 88 89 88 90 90 91 92 93 94 93 92 91 91 92
78 72 76 79 81 80 83 74 78 87 88 85 86 87 87 90 91 89 90 88 89 90 89 87 87 87 86 86 87 88 90 92 91 92 89 88 88 87 85 90 90 91 91 89 89 89 90 90 91
71 73 66 76 79 80 80 67 81 86 85 84 86 87 87 89 91 92 92 91 90 89 87 86 89 88 85 84 84 89 90 90 91 92 91 89 88 87 86 89 90 92 90 91 90 91 90 91 91
67 61 65 70 79 78 77 73 82 84 83 83 85 86 87 88 90 92 93 90 90 88 88 86 86 88 85 85 87 88 88 89 93 93 92 89 89 89 86 89 90 88 90 89 85 87 86 85 88
59 63 67 68 74 76 73 75 79 82 84 82 84 85 86 87 88 91 91 92 91 88 86 86 86 85 84 87 87 91 91 92 93 93 94 89 90 88 87 87 86 87 89 89 89 85 87 87 87
69 66 66 71 76 73 72 74 79 81 82 83 85 86 87 89 93 91 89 90 89 87 83 83 83 82 85 86 87 88 90 91 93 91 85 85 86 84 83 86 87 86 84 85 83 83 82 84 87
68 65 67 72 73 73 72 71 78 81 79 81 84 85 87 89 90 90 87 86 85 84 84 83 83 82 83 86 86 90 90 89 83 83 82 82 80 79 77 76 77 76 78 78 79 78 80 86 88
64 64 64 65 70 73 72 68 72 78 82 84 86 85 87 88 89 89 88 85 84 83 82 82 82 81 83 84 85 84 84 81 84 83 83 81 81 80 80 80 81 80 81 82 76 77 74 76 83
58 69 69 67 64 59 72 58 68 74 76 80 83 85 86 87 89 91 90 86 85 85 85 84 82 81 82 82 83 82 85 81 82 82 81 80 80 80 80 80 79 78 82 77 79 77 74 71 74
63 69 68 67 65 67 64 63 67 74 71 76 81 84 86 89 90 90 90 90 88 85 85 83 82 83 82 83 82 84 80 80 83 82 77 76 77 79 80 79 78 77 81 77 76 76 75 78 73
70 68 67 67 65 56 63 63 67 69 72 76 81 83 85 88 90 91 91 87 86 87 85 83 82 80 81 81 80 79 77 78 80 80 80 82 82 81 78 79 78 76 76 76 77 75 76 74 75
67 63 53 51 53 52 66 62 68 76 78 80 80 83 86 88 89 90 88 86 84 84 83 83 81 78 80 79 79 78 77 77 75 79 81 81 82 81 75 76 75 77 75 76 74 73 73 74 73
64 64 56 45 48 55 65 56 66 76 79 82 84 85 86 86 90 90 90 88 85 83 82 82 81 79 80 80 79 79 78 83 82 79 81 81 81 79 76 76 76 76 76 75 74 76 75 73 73
63 59 68 59 63 59 59 64 70 75 75 77 79 81 81 83 86 88 90 88 85 83 82 82 80 80 80 80 79 78 80 80 77 76 78 80 78 81 76 76 74 74 74 73 71 75 71 71 71
67 71 56 61 47 46 56 58 62 67 71 76 78 80 82 83 85 87 89 85 85 84 82 82 82 81 80 80 80 80 78 78 76 76 75 75 76 75 74 74 74 73 73 73 70 72 72 69 71
63 62 64 65 62 52 49 56 73 72 74 75 78 80 80 82 84 86 87 84 84 83 84 81 82 80 80 79 78 77 77 76 76 77 76 74 73 73 73 73 72 72 72 71 69 68 69 68 67
68 64 63 55 52 62 62 58 73 74 75 74 76 77 80 81 84 86 84 83 82 82 82 81 80 81 80 79 78 76 76 76 74 73 72 72 71 72 71 71 71 71 71 69 68 67 67 66 65
MSLP
1011.78 1010.47 1009.79 1008.81 1007.11 1004.48 1002.02 1001.27 1001.06 1000.96 1001.28 1001.78 1001.98 1001.84 1002.06 1002.82 1003.54 1004.87 1007.04 1007.57 1008.43 1009.57 1010.96 1012.15 1012.87 1013.18 1013.32 1013.56 1013.80 1014.05 1014.43 1014.74 1015.06 1015.43 1015.66 1015.59 1015.79 1015.95 1016.18 1016.33 1016.48 1016.61 1016.71 1016.84 1016.88 1016.83 1016.86 1016.85 1016.79
1011.21 1010.34 1009.17 1007.19 1005.57 1002.62 1001.18 1000.90 1001.07 1000.69 1001.49 1002.13 1002.27 1002.51 1002.74 1003.93 1005.04 1006.37 1007.25 1007.99 1008.80 1010.00 1011.17 1011.89 1013.02 1013.29 1013.46 1013.74 1013.98 1014.23 1014.54 1014.97 1015.25 1015.69 1015.78 1015.79 1016.07 1016.28 1016.50 1016.56 1016.64 1016.73 1016.87 1017.03 1017.18 1017.23 1017.26 1017.18 1017.03
1011.02 1010.32 1008.07 1006.11 1004.30 1001.79 1000.46 1000.91 1000.79 1001.45 1001.79 1001.93 1001.97 1002.45 1003.46 1005.10 1006.07 1006.31 1007.28 1008.23 1009.18 1010.29 1011.04 1012.02 1012.99 1013.36 1013.53 1013.78 1014.10 1014.41 1014.68 1015.06 1015.34 1015.55 1015.70 1015.72 1015.86 1016.18 1016.32 1016.50 1016.60 1016.76 1016.93 1017.11 1017.18 1017.35 1017.41 1017.35 1017.24
1010.39 1009.25 1007.86 1005.77 1003.16 1002.31 1001.05 1001.05 1001.38 1001.73 1001.65 1002.06 1001.92 1003.34 1005.16 1006.62 1006.24 1006.64 1007.95 1008.44 1009.25 1010.05 1010.89 1012.51 1013.07 1013.37 1013.66 1013.91 1014.16 1014.45 1014.66 1015.02 1015.21 1015.42 1015.49 1015.61 1015.92 1016.16 1016.35 1016.54 1016.70 1016.65 1016.77 1017.08 1017.29 1017.35 1017.29 1017.37 1017.49
1010.10 1008.22 1005.93 1004.71 1003.22 1002.16 1002.26 1001.72 1001.98 1001.70 1001.56 1001.81 1002.28 1003.67 1005.20 1006.89 1006.99 1007.32 1008.09 1008.63 1008.97 1009.84 1010.75 1012.39 1013.16 1013.50 1013.80 1014.08 1014.19 1014.36 1014.65 1014.85 1015.10 1015.44 1015.74 1015.85 1016.14 1016.39 1016.64 1016.76 1016.89 1016.98 1016.92 1016.99 1017.12 1017.38 1017.47 1017.49 1017.55
1008.56 1007.60 1004.77 1003.25 1002.77 1002.31 1002.52 1002.39 1002.17 1001.82 1001.78 1001.91 1002.43 1003.82 1005.55 1007.12 1007.27 1007.64 1008.19 1008.59 1009.13 1009.87 1011.03 1012.23 1013.35 1013.68 1013.93 1014.29 1014.45 1014.56 1014.78 1015.11 1015.45 1015.79 1016.07 1016.34 1016.64 1016.74 1016.89 1017.04 1017.13 1017.12 1017.23 1017.23 1017.25 1017.31 1017.46 1017.45 1017.49
1007.15 1006.00 1004.02 1002.85 1002.38 1002.00 1002.07 1002.41 1002.37 1001.64 1001.88 1002.15 1002.43 1004.03 1006.28 1006.88 1007.49 1007.78 1008.27 1008.76 1009.32 1009.99 1010.86 1012.13 1012.90 1013.68 1014.20 1014.45 1014.67 1014.84 1015.10 1015.37 1015.74 1016.08 1016.33 1016.58 1016.74 1016.87 1017.02 1017.13 1017.30 1017.39 1017.33 1017.28 1017.16 1017.24 1017.23 1017.34 1017.35
1007.10 1005.48 1004.00 1002.95 1001.48 1001.44 1002.03 1002.45 1002.47 1002.50 1002.09 1003.62 1003.65 1004.00 1005.98 1007.01 1007.76 1007.98 1008.28 1008.87 1009.49 1010.12 1010.71 1011.53 1012.34 1013.00 1013.58 1014.19 1014.77 1015.03 1015.31 1015.54 1015.80 1016.12 1016.39 1016.64 1016.79 1016.97 1017.10 1017.15 1017.10 1017.21 1017.22 1017.24 1017.04 1017.06 1017.08 1017.05 1016.96
1007.27 1005.31 1003.12 1001.97 1001.83 1001.30 1001.67 1002.46 1002.21 1003.22 1003.26 1003.75 1004.17 1004.31 1005.42 1007.48 1008.07 1008.18 1008.31 1008.72 1009.24 1009.84 1010.57 1011.08 1011.65 1012.31 1012.75 1013.40 1014.52 1015.29 1015.46 1015.56 1015.85 1016.15 1016.38 1016.60 1016.09 1016.19 1016.45 1016.46 1016.92 1017.16 1017.26 1017.22 1017.13 1017.06 1016.96 1016.90 1016.58
1006.36 1004.57 1002.43 1002.21 1002.45 1002.49 1001.31 1002.26 1001.93 1002.87 1002.94 1003.63 1004.64 1005.68 1006.65 1007.44 1008.00 1008.00 1008.01 1008.20 1008.74 1009.53 1010.42 1010.91 1011.41 1011.97 1012.37 1012.92 1013.95 1014.56 1014.81 1015.06 1015.34 1015.51 1015.95 1015.83 1015.58 1015.73 1015.87 1016.30 1016.87 1017.08 1017.06 1017.00 1016.87 1016.83 1016.87 1016.57 1015.11
1005.73 1003.65 1003.35 1002.73 1003.29 1003.85 1002.27 1002.32 1001.96 1002.49 1002.21 1002.83 1003.92 1005.46 1006.44 1007.15 1007.77 1007.95 1008.07 1008.46 1008.76 1009.52 1010.12 1010.82 1011.59 1012.01 1012.16 1012.59 1013.50 1013.72 1013.94 1014.25 1014.72 1015.03 1015.43 1015.48 1015.46 1015.59 1015.70 1015.47 1015.63 1015.97 1016.29 1015.81 1015.76 1015.59 1015.51 1015.02 1015.07
1005.24 1004.80 1003.66 1003.73 1004.51 1004.10 1002.75 1002.38 1002.57 1002.43 1002.32 1002.93 1004.15 1005.21 1006.20 1006.76 1007.04 1007.28 1007.66 1008.35 1008.72 1009.47 1009.88 1010.66 1011.45 1012.13 1012.40 1012.45 1013.04 1013.20 1013.38 1013.79 1014.17 1014.58 1015.21 1015.37 1015.55 1015.50 1015.51 1015.03 1014.98 1015.47 1015.22 1015.29 1015.39 1015.05 1015.07 1015.29 1015.23
1004.99 1004.23 1004.40 1004.06 1004.47 1003.98 1003.30 1002.85 1002.45 1002.92 1003.54 1003.82 1004.22 1005.28 1005.88 1006.48 1006.88 1007.03 1007.29 1008.17 1008.91 1009.59 1010.11 1010.77 1011.48 1012.24 1012.66 1012.99 1012.89 1013.12 1013.39 1013.70 1013.76 1014.34 1014.77 1015.01 1015.00 1015.10 1015.01 1014.94 1014.89 1014.80 1014.65 1014.75 1014.83 1014.63 1014.71 1014.62 1014.42
1004.86 1004.47 1004.78 1004.32 1004.33 1004.15 1003.76 1003.32 1002.99 1003.27 1004.06 1004.08 1004.60 1005.14 1005.71 1006.11 1006.54 1007.12 1007.66 1008.28 1009.00 1009.67 1010.31 1010.99 1011.72 1012.55 1012.79 1013.13 1013.19 1013.46 1013.81 1013.71 1014.16 1014.26 1014.45 1014.99 1014.85 1014.92 1014.75 1014.76 1014.65 1014.45 1014.34 1014.29 1014.37 1014.28 1014.41 1014.23 1013.92
1004.86 1004.79 1004.74 1004.36 1004.05 1003.75 1003.73 1003.64 1002.98 1003.49 1004.08 1004.23 1004.63 1005.18 1005.78 1006.01 1006.57 1007.10 1007.74 1008.29 1009.07 1009.77 1010.42 1011.24 1011.92 1012.60 1013.08 1013.35 1013.60 1013.48 1013.58 1013.76 1013.96 1013.99 1014.52 1014.62 1014.74 1014.67 1014.87 1014.55 1014.37 1014.20 1014.26 1014.34 1014.31 1014.32 1013.98 1013.93 1013.59
1004.83 1004.57 1003.89 1003.76 1003.99 1003.98 1004.03 1003.31 1003.19 1004.09 1004.09 1004.12 1004.42 1004.95 1005.63 1005.83 1006.22 1006.94 1007.48 1008.19 1009.03 1009.72 1010.45 1011.36 1011.79 1012.37 1013.11 1013.45 1013.54 1013.35 1013.48 1013.82 1013.72 1013.69 1013.97 1014.23 1014.44 1014.57 1014.43 1014.28 1014.06 1013.83 1014.10 1013.72 1013.74 1013.65 1013.41 1013.24 1012.95
1004.33 1002.99 1002.78 1003.11 1003.63 1003.69 1003.78 1002.93 1003.84 1004.24 1004.28 1004.09 1004.46 1004.78 1005.31 1005.83 1006.23 1006.83 1007.52 1008.22 1008.88 1009.73 1010.34 1011.02 1011.71 1012.08 1012.80 1013.15 1013.15 1013.14 1013.36 1013.44 1013.18 1013.33 1013.55 1013.86 1014.03 1014.08 1014.33 1013.94 1013.70 1013.97 1013.64 1013.56 1013.89 1013.62 1013.54 1013.28 1012.81
1002.59 1002.45 1002.70 1002.14 1003.25 1003.52 1003.60 1002.85 1003.56 1004.16 1004.32 1004.09 1004.53 1004.94 1005.25 1005.84 1006.21 1006.85 1007.50 1008.10 1008.95 1009.76 1010.42 1010.97 1011.53 1012.06 1012.66 1012.84 1012.99 1012.88 1012.83 1012.85 1012.99 1013.16 1013.30 1013.77 1013.72 1013.97 1014.09 1013.82 1013.82 1013.90 1013.51 1013.35 1013.36 1013.48 1013.19 1012.87 1012.55
1002.37 1002.48 1001.69 1002.09 1002.82 1003.37 1003.14 1003.06 1002.88 1003.86 1004.03 1003.69 1004.05 1004.47 1004.85 1005.26 1005.88 1006.94 1007.65 1008.25 1009.08 1009.74 1010.50 1011.01 1011.45 1012.17 1012.40 1012.53 1012.48 1012.46 1012.35 1012.76 1012.96 1013.17 1014.04 1014.00 1013.82 1014.03 1014.12 1013.86 1013.84 1013.63 1013.69 1013.46 1013.54 1013.32 1012.84 1012.47 1012.06
1002.30 1001.94 1001.37 1002.31 1003.23 1003.30 1003.12 1003.19 1003.22 1003.33 1004.00 1004.03 1004.15 1004.43 1004.74 1005.25 1005.84 1006.55 1007.51 1008.45 1009.02 1009.71 1010.13 1010.78 1011.28 1011.93 1012.36 1012.42 1012.62 1012.62 1012.80 1013.19 1014.15 1014.56 1014.38 1014.29 1014.35 1014.51 1014.71 1014.73 1014.55 1014.48 1014.25 1014.14 1013.84 1013.54 1012.93 1011.92 1011.54
1002.69 1001.87 1002.11 1002.26 1002.97 1003.55 1003.01 1003.28 1003.23 1003.54 1003.86 1004.16 1004.12 1004.55 1004.77 1005.21 1005.41 1006.13 1007.12 1008.17 1008.93 1009.61 1010.19 1010.67 1011.29 1011.94 1012.21 1012.45 1012.83 1013.09 1013.53 1014.03 1013.83 1014.17 1014.49 1014.76 1014.73 1014.81 1014.90 1014.77 1014.63 1014.58 1014.30 1013.93 1014.31 1013.95 1013.65 1012.82 1011.94
1002.84 1002.75 1002.60 1002.67 1002.99 1002.20 1002.70 1002.22 1002.83 1003.32 1003.43 1003.48 1003.78 1004.20 1005.06 1005.21 1005.51 1005.78 1006.44 1007.75 1008.60 1009.35 1010.14 1010.58 1011.17 1011.66 1012.03 1012.45 1012.55 1012.61 1012.52 1013.35 1013.98 1014.20 1014.85 1015.28 1015.38 1015.42 1015.34 1015.30 1015.24 1015.00 1014.42 1014.65 1014.15 1014.10 1014.02 1013.77 1012.71
1002.70 1003.39 1002.88 1002.92 1002.84 1002.11 1002.98 1001.96 1001.71 1002.93 1002.99 1003.20 1003.59 1003.92 1004.34 1004.54 1004.85 1005.43 1006.22 1006.97 1008.14 1009.27 1009.91 1010.51 1011.09 1011.34 1011.81 1012.16 1012.47 1012.57 1013.14 1014.05 1014.10 1014.57 1015.16 1015.73 1015.93 1015.76 1015.62 1015.58 1015.55 1015.25 1014.78 1014.88 1014.74 1014.64 1014.18 1013.41 1013.26
1003.51 1003.08 1003.35 1003.60 1003.03 1002.17 1001.88 1002.11 1000.47 1001.56 1002.26 1002.97 1003.48 1003.87 1004.27 1004.45 1004.82 1005.30 1006.26 1007.61 1008.38 1009.13 1009.91 1010.57 1010.99 1011.49 1011.94 1012.39 1012.80 1013.17 1013.80 1014.10 1014.28 1014.61 1014.88 1015.09 1015.36 1015.60 1015.85 1015.65 1015.34 1015.28 1015.21 1015.15 1014.90 1014.88 1014.25 1014.03 1013.60
1003.30 1002.36 1002.21 1002.67 1002.41 1001.61 1002.17 1002.18 1000.64 1000.75 1001.83 1002.29 1002.74 1003.40 1003.88 1004.37 1004.65 1005.07 1006.10 1007.30 1008.39 1009.16 1009.91 1010.58 1011.12 1011.66 1012.24 1012.69 1013.28 1013.93 1014.33 1014.55 1014.70 1014.67 1014.83 1014.80 1014.99 1015.23 1015.77 1015.61 1015.58 1015.36 1015.39 1015.26 1015.10 1014.92 1014.63 1014.18 1014.07
1002.37 1001.49 1000.64 1000.58 1000.80 1001.13 1001.87 1001.55 1001.11 1001.67 1001.88 1002.42 1002.47 1002.94 1003.35 1004.23 1004.28 1004.72 1005.61 1006.79 1008.06 1009.13 1010.08 1010.54 1011.20 1011.84 1012.46 1012.92 1013.56 1014.16 1014.48 1014.13 1014.43 1014.84 1014.96 1015.06 1015.13 1015.48 1015.90 1015.82 1015.69 1015.58 1015.39 1015.34 1015.16 1014.71 1014.66 1014.55 1014.23
1002.24 1001.62 1001.12 1000.51 1000.74 1000.74 1001.93 1001.94 1002.03 1002.05 1002.51 1003.15 1003.25 1003.58 1003.90 1004.17 1004.28 1004.55 1005.23 1006.52 1007.73 1008.93 1009.89 1010.58 1011.21 1011.86 1012.56 1013.20 1013.73 1014.08 1014.14 1014.26 1014.80 1015.25 1015.32 1015.31 1015.63 1015.53 1015.86 1015.84 1015.90 1015.77 1015.63 1015.57 1015.47 1014.63 1014.83 1014.67 1014.17
1002.19 1002.16 1002.38 1001.41 1000.90 1000.62 1001.02 1001.22 1000.99 1002.02 1002.37 1002.72 1002.82 1003.09 1003.41 1003.94 1004.30 1004.57 1005.05 1006.65 1007.81 1008.97 1009.95 1010.66 1011.31 1011.94 1012.59 1013.23 1013.72 1013.85 1014.52 1014.96 1015.45 1015.73 1015.78 1015.92 1016.00 1016.04 1015.98 1015.95 1015.87 1015.77 1015.67 1015.53 1015.46 1014.86 1014.57 1014.56 1014.07
1001.94 1001.83 1001.88 1001.18 1001.15 1000.63 1000.67 1001.10 1000.99 1001.37 1001.90 1002.31 1002.78 1002.99 1003.64 1004.06 1004.19 1004.66 1005.27 1006.98 1008.05 1009.11 1009.82 1010.84 1011.47 1012.18 1012.77 1013.31 1013.76 1014.34 1014.91 1015.48 1015.83 1016.05 1016.25 1016.38 1016.31 1016.31 1016.06 1015.97 1015.88 1015.71 1015.54 1015.38 1015.33 1015.05 1014.57 1014.05 1013.78
1001.87 1001.81 1002.15 1001.66 1001.86 1001.03 1000.78 1001.14 1002.04 1002.07 1002.68 1003.32 1003.52 1003.95 1004.15 1004.22 1004.37 1004.84 1005.99 1007.36 1008.32 1009.12 1009.99 1010.94 1011.52 1012.15 1012.88 1013.52 1014.14 1014.85 1015.45 1015.87 1016.28 1016.53 1016.61 1016.69 1016.68 1016.57 1016.35 1016.04 1015.91 1015.68 1015.41 1015.23 1015.05 1014.67 1014.29 1013.82 1013.35
Wind_Speed
15 10 7 6 9 8 13 7 4 9 8 6 3 0 9 14 9 8 12 11 20 20 19 17 12 13 15 15 16 17 16 15 14 13 13 13 12 12 11 10 9 9 9 8 7 7 7 7 6
11 10 7 5 10 12 12 5 13 6 7 2 6 6 4 12 10 14 14 19 21 20 18 18 13 14 15 15 16 17 16 15 14 12 12 13 11 11 10 10 9 9 8 8 6 5 5 5 4
11 7 7 7 13 15 12 11 10 3 2 6 7 1 5 7 8 14 18 23 22 20 18 17 15 14 16 17 17 16 16 15 15 14 13 13 13 11 10 9 9 8 8 7 7 5 4 3 2
4 6 6 11 15 18 5 8 7 5 5 7 8 10 9 3 6 8 21 23 22 20 19 19 15 14 14 15 17 18 18 16 16 15 14 13 13 11 9 9 8 8 8 6 5 5 4 3 2
6 7 12 16 21 17 7 6 3 6 3 9 11 10 8 7 3 19 21 21 22 20 19 19 16 15 14 14 16 18 18 17 16 15 13 12 11 10 8 8 7 6 7 7 6 4 2 1 3
10 6 15 18 23 19 11 9 6 8 3 8 8 12 9 9 13 18 20 20 20 20 19 18 15 15 15 14 14 15 16 14 13 12 11 9 8 8 7 6 5 5 5 4 3 2 2 3 4
19 14 22 22 21 20 18 11 11 9 4 8 6 12 7 12 14 17 19 18 19 19 18 17 17 15 13 14 13 13 13 12 11 10 9 8 8 7 7 5 3 2 3 3 3 3 4 5 5
15 14 25 26 21 24 20 11 10 8 3 4 4 10 10 13 16 17 18 18 18 18 18 17 16 17 15 14 12 12 12 11 11 10 10 9 8 7 7 4 7 5 4 4 4 4 4 6 5
14 16 21 33 26 21 18 16 12 2 8 2 1 3 11 21 17 17 18 19 17 16 16 16 16 15 14 14 12 10 11 11 10 10 9 9 8 9 9 5 5 4 6 6 6 6 6 6 11
19 20 29 23 20 19 16 18 15 11 8 8 7 13 21 21 20 21 20 20 20 18 17 15 14 14 13 10 12 12 11 10 9 9 9 8 5 4 5 2 4 6 8 8 9 8 9 10 8
25 24 21 10 6 17 13 17 11 14 14 10 11 15 20 22 20 20 19 18 19 19 15 16 14 13 13 10 9 7 7 7 7 8 7 6 4 5 6 5 6 7 11 7 9 7 8 6 7
23 28 22 11 14 13 16 15 14 15 3 3 7 16 18 20 20 21 21 19 19 18 18 17 15 12 10 7 8 7 6 7 6 7 8 5 5 4 5 4 3 4 4 5 6 6 5 7 8
27 24 21 16 15 12 5 14 14 14 3 6 15 16 17 18 18 16 16 16 16 17 16 14 13 11 10 8 7 6 6 5 5 5 8 6 6 4 5 4 5 4 4 5 6 6 5 6 8
21 21 21 21 15 11 11 8 11 8 9 11 16 17 16 16 15 13 13 14 14 14 14 13 12 10 9 8 7 6 5 4 5 4 5 8 6 5 6 5 6 5 5 5 5 6 6 7 8
18 26 21 23 19 11 8 8 10 12 13 16 18 16 14 14 14 13 13 13 13 11 10 11 11 10 8 8 7 5 5 4 5 5 6 7 7 7 7 6 6 5 5 5 6 7 7 7 8
21 25 20 26 23 15 15 16 9 11 15 16 17 16 14 14 15 11 10 11 11 9 11 11 9 11 9 8 5 5 4 5 6 5 5 7 8 8 7 7 6 5 6 6 6 6 6 7 8
21 20 27 26 24 17 17 21 14 11 12 15 15 15 14 13 10 10 11 9 9 9 10 11 10 10 9 7 7 5 6 6 6 4 4 4 6 7 7 7 6 6 7 5 6 7 7 8 8
26 25 28 22 24 24 19 17 22 11 14 14 15 14 12 12 12 9 8 8 9 9 8 9 9 8 9 7 5 5 5 4 3 3 0 3 4 6 7 7 7 7 7 6 6 7 8 8 9
25 25 29 25 18 27 22 18 13 18 14 15 15 14 14 14 11 8 7 8 9 10 11 10 10 9 7 6 6 5 5 4 2 4 6 6 6 6 6 7 6 6 7 7 7 8 9 9 9
25 25 19 21 16 21 23 21 14 23 17 14 14 12 13 11 10 9 9 8 9 10 10 10 9 10 7 6 3 2 2 4 6 2 5 6 5 5 4 3 4 5 5 7 7 7 8 9 8
18 23 16 20 17 19 22 20 20 14 21 23 18 12 9 10 10 10 11 10 10 10 11 11 11 10 7 5 5 5 7 5 5 5 6 8 9 8 7 6 5 4 5 5 7 7 8 8 10
16 18 17 19 21 16 18 16 22 20 17 18 18 15 15 11 8 6 8 10 10 11 11 11 11 10 9 9 7 9 5 6 6 6 8 7 8 8 8 7 6 7 6 7 7 5 6 6 9
10 15 19 15 18 17 20 15 24 21 19 18 19 17 11 10 9 10 8 8 8 10 10 10 10 10 11 10 10 8 9 9 7 8 8 8 6 7 7 7 7 7 6 6 7 8 8 6 5
12 21 17 18 11 13 15 18 17 23 24 22 19 15 15 13 12 9 7 9 8 10 12 12 13 12 13 12 11 11 12 10 8 7 6 5 4 6 6 7 6 7 7 7 7 8 8 8 9
13 20 12 15 14 11 18 14 14 21 22 23 22 19 17 13 13 12 11 11 11 12 14 14 15 15 14 14 14 13 12 12 11 8 6 4 5 5 7 7 7 7 7 7 8 9 8 8 9
21 21 14 20 16 12 12 12 9 9 2 10 15 16 14 14 14 15 16 13 14 14 15 16 16 17 16 15 14 12 13 8 8 7 5 5 4 5 5 5 6 7 7 7 7 9 7 9 9
23 17 5 3 16 14 11 5 3 5 13 12 13 13 13 14 13 14 17 15 15 16 16 16 17 16 15 14 11 10 9 7 8 7 3 4 2 2 4 6 6 7 7 7 8 7 9 8 10
22 17 9 7 10 10 13 15 7 16 15 16 16 14 14 12 13 14 15 15 14 15 15 15 15 15 15 13 10 9 9 7 6 4 4 3 2 3 5 6 6 7 8 8 8 9 10 11 9
16 17 13 7 4 7 7 9 6 13 11 14 14 7 6 10 13 14 15 15 16 16 16 15 14 14 12 10 10 8 7 6 4 2 2 4 4 5 6 7 8 9 10 10 10 11 13 14 15
14 16 14 6 8 4 1 9 5 5 7 4 5 4 2 7 11 14 16 16 17 17 16 14 13 12 10 9 9 7 5 4 3 4 5 6 6 7 7 8 10 11 12 13 14 15 16 17 18
Wind_Direction
276 292 283 250 242 232 245 193 346 157 161 99 97 163 56 23 5 46 135 157 138 138 141 154 145 141 136 132 129 126 127 129 132 135 136 128 129 129 129 125 128 131 130 133 133 131 129 129 127
302 299 233 259 250 217 222 165 198 147 82 188 201 171 181 79 62 117 137 140 145 138 145 149 148 145 141 138 133 131 130 130 130 135 135 127 126 133 135 133 135 137 137 138 139 135 132 129 134
269 262 251 224 233 244 230 170 167 166 217 200 137 17 76 87 108 144 126 147 140 145 150 142 153 153 147 143 138 136 132 133 137 142 138 137 141 149 145 145 144 142 140 142 146 147 146 150 170
246 203 226 238 223 228 281 193 126 242 160 183 138 109 107 41 154 130 150 146 147 149 149 141 155 155 151 146 144 141 140 146 148 148 149 148 152 152 145 146 150 148 144 147 149 158 173 183 238
206 267 223 221 232 228 181 251 216 255 171 163 193 133 100 81 132 137 149 153 151 150 146 155 155 156 153 156 152 149 151 154 155 155 155 152 155 148 145 151 154 157 152 155 155 169 183 230 279
203 229 227 215 222 223 215 231 256 249 163 137 195 136 100 112 139 147 154 158 153 149 147 148 153 158 156 160 159 156 157 156 156 156 154 149 151 150 158 161 164 160 159 159 166 185 235 257 277
232 209 230 220 222 212 220 217 244 233 209 138 120 146 107 149 144 150 159 157 152 151 155 159 164 158 154 160 163 162 160 157 155 154 154 159 165 167 170 169 177 188 184 194 184 224 246 268 281
220 237 232 235 221 219 215 220 224 253 182 100 240 165 168 151 155 154 160 160 159 161 155 161 165 168 170 168 165 163 160 156 158 160 163 170 174 186 188 194 194 216 225 235 230 244 256 265 266
229 225 226 218 222 219 191 222 195 179 249 166 90 29 126 146 155 158 160 165 166 167 162 167 170 169 178 168 163 160 166 162 159 168 172 174 206 185 186 180 138 224 257 268 272 270 265 273 252
210 219 219 223 207 255 211 214 206 216 203 196 145 114 132 147 161 164 171 168 171 168 171 168 175 171 178 168 159 189 179 184 190 190 175 216 211 225 297 347 191 246 252 263 256 259 267 253 261
211 227 222 193 189 236 219 220 196 219 214 201 183 151 152 157 163 168 170 175 173 173 174 173 180 177 186 177 174 188 187 188 192 197 196 213 214 200 212 235 203 224 200 253 210 220 240 300 304
214 223 226 188 193 215 217 210 205 221 210 120 182 159 162 167 170 172 174 179 176 176 177 179 178 178 194 183 192 192 201 191 193 194 192 212 218 211 256 254 259 224 256 284 261 277 291 285 283
215 198 229 195 197 208 191 207 207 209 210 186 151 163 168 169 172 174 172 171 180 184 180 181 175 178 181 200 189 209 214 192 196 190 191 216 230 228 240 249 257 268 262 249 254 255 271 285 269
194 215 201 216 198 183 217 189 188 154 186 157 159 164 169 167 168 166 176 180 187 185 180 180 181 175 184 202 191 179 206 167 221 202 205 210 232 230 266 243 249 245 239 247 259 265 284 285 288
200 212 202 215 208 201 217 184 209 145 179 165 169 163 173 176 170 177 179 183 184 186 181 180 180 175 185 195 195 191 174 189 219 215 209 217 223 225 250 257 250 251 241 242 239 244 238 252 257
215 203 199 199 208 211 207 188 179 166 176 172 169 163 171 173 170 174 176 182 180 185 181 181 185 170 180 189 174 201 167 211 227 217 213 218 228 236 242 252 250 249 244 244 246 255 270 268 270
196 192 207 186 201 185 206 197 161 171 188 170 168 166 170 171 183 178 185 186 179 186 176 173 174 179 179 173 202 197 190 222 219 212 225 230 243 246 250 261 259 248 258 258 274 270 266 273 271
188 209 198 199 186 214 197 216 164 175 198 175 181 179 180 184 187 188 209 202 182 165 157 150 162 150 169 165 181 181 163 182 182 184 170 287 279 274 262 260 267 262 260 257 259 275 279 286 286
192 205 192 205 179 201 201 203 221 181 209 173 172 170 174 180 161 165 174 188 194 184 160 157 155 154 167 171 185 180 200 134 194 34 5 353 356 336 293 274 267 253 270 294 293 271 266 266 268
207 204 202 186 157 203 204 202 194 194 201 198 186 179 183 178 181 169 147 154 171 169 173 172 174 163 190 173 198 244 235 70 56 68 41 37 36 20 12 354 337 337 314 300 302 289 286 280 274
223 197 175 183 175 206 191 203 196 187 201 206 221 206 199 201 191 166 156 154 151 154 156 161 159 159 169 170 164 154 113 141 137 105 76 56 57 53 42 33 21 343 300 348 316 309 288 286 286
182 210 185 180 180 182 189 194 196 194 197 203 195 198 192 205 206 200 165 150 160 153 156 154 155 158 166 176 176 176 157 134 104 102 86 83 73 73 69 57 49 34 26 13 13 355 336 329 309
167 192 196 175 199 189 188 243 180 207 197 197 205 203 213 215 212 191 198 146 145 148 151 142 148 149 143 145 135 141 121 135 124 108 114 96 92 71 67 54 45 38 25 20 2 349 347 316 303
153 177 181 197 211 220 177 217 203 189 208 207 202 211 214 222 223 213 123 141 141 143 142 141 136 129 131 130 127 122 132 131 126 117 119 107 100 98 57 55 42 33 7 5 343 338 331 327 317
197 155 161 180 196 215 205 197 236 192 196 218 208 209 205 211 223 219 185 166 154 150 145 141 137 131 129 127 129 135 135 123 129 142 98 101 86 59 50 24 20 10 3 349 342 332 324 320 322
192 192 166 178 185 156 159 218 207 154 299 211 231 220 196 216 215 210 201 182 162 153 152 142 139 136 138 134 134 136 151 133 125 89 93 69 59 49 27 14 5 356 350 347 346 311 339 330 315
189 212 54 250 189 179 168 198 117 199 166 192 200 204 210 214 214 213 200 181 164 160 155 147 141 137 140 137 136 133 115 95 92 103 123 91 46 9 26 352 346 340 334 335 336 336 309 321 314
191 202 151 227 175 179 177 193 213 172 192 200 211 215 212 217 213 206 191 173 163 156 148 143 143 143 137 135 135 110 106 102 103 109 61 40 11 339 326 329 331 325 324 322 323 321 320 308 299
187 192 209 234 263 189 152 211 206 182 199 199 207 206 237 216 212 194 183 167 162 154 144 146 140 136 130 119 106 107 100 98 93 67 7 351 328 328 323 327 322 318 313 315 312 309 299 307 303
191 196 204 185 174 49 295 99 127 140 144 162 192 221 241 215 194 177 166 164 156 155 144 141 135 128 126 117 110 104 102 89 38 4 355 347 336 323 320 321 315 314 313 314 310 307 309 305 304